Theta_e
325 324 328 329 325 327 329 328 328 327 325 321 320 321 321 326 332 335 338 340 339 340 339 339 338 337 336 337 334 331 331 335 336 336 337 337 337 336 335 332 330 330 329 328 328 327 328 328 327
325 325 329 327 328 328 327 326 326 325 323 320 321 324 336 334 338 339 340 340 339 340 339 339 338 336 335 335 330 329 328 332 335 336 336 336 337 336 335 332 330 329 328 327 326 327 328 327 326
324 327 325 331 330 332 327 324 324 323 322 323 323 333 332 338 337 339 340 340 341 340 339 339 338 335 334 333 328 325 327 330 331 334 335 335 336 336 335 331 330 328 327 325 324 325 326 326 324
321 323 323 331 334 329 326 324 321 323 323 321 322 335 337 338 338 340 341 341 341 339 338 338 337 335 333 330 325 328 327 332 335 335 336 335 336 334 331 329 329 327 327 327 325 324 324 321 319
318 322 327 335 332 328 325 324 324 325 324 323 325 333 339 338 338 340 341 342 341 339 338 338 336 335 332 328 326 332 330 334 336 336 335 335 332 329 330 328 328 327 326 327 326 323 316 318 318
323 323 332 332 331 326 325 325 326 325 324 323 327 337 340 338 339 340 341 341 341 339 338 337 335 335 332 326 328 331 331 332 334 334 333 331 330 329 328 328 328 327 326 327 325 313 311 314 317
326 326 329 329 327 325 325 323 324 324 325 324 325 339 337 339 337 339 341 340 339 338 338 336 335 334 332 325 330 333 331 331 334 333 333 332 329 327 326 325 326 328 328 323 314 311 311 310 312
320 325 326 326 327 326 322 323 323 323 323 322 330 338 338 338 337 338 338 338 338 338 337 335 334 334 331 326 329 333 332 331 332 333 332 330 327 327 325 325 324 325 320 314 312 310 308 309 309
316 324 323 323 323 324 320 322 320 324 325 324 335 334 333 338 337 335 335 336 337 336 337 335 334 332 331 329 330 334 333 333 333 332 331 329 327 327 325 324 322 321 316 313 310 309 312 314 316
315 316 320 318 318 320 320 321 321 324 326 327 332 336 337 339 337 335 335 335 333 333 333 333 335 333 331 333 334 334 331 331 331 329 329 327 326 325 324 322 323 317 314 311 310 311 317 318 319
310 314 312 315 314 315 317 320 319 324 326 325 327 325 339 339 338 336 335 333 334 333 334 332 331 334 333 333 334 333 331 328 322 320 321 322 324 325 324 321 318 313 312 311 310 317 318 318 319
310 309 310 310 311 312 316 317 320 321 322 322 321 320 331 339 338 335 335 335 335 333 332 330 330 334 334 333 334 334 331 324 320 320 322 322 322 322 319 316 314 312 312 316 319 320 320 318 318
308 307 307 307 308 309 310 315 319 320 319 322 322 321 324 333 336 335 335 335 334 332 330 329 330 331 333 336 333 333 330 323 320 321 322 321 321 321 317 313 313 313 320 322 322 322 321 320 320
305 305 305 306 307 308 309 311 314 319 320 321 323 322 324 332 334 337 336 334 332 332 330 330 330 331 331 335 333 332 330 323 320 322 323 323 322 323 319 317 314 319 322 323 323 323 321 322 322
304 306 304 304 305 307 312 311 312 314 317 322 323 323 320 330 332 333 337 333 333 332 331 331 331 330 335 333 333 333 328 323 321 324 325 324 324 324 323 322 320 322 323 323 323 323 322 321 321
304 304 304 302 302 306 312 308 310 315 320 323 324 323 320 326 332 332 336 333 332 332 333 332 332 333 334 333 334 330 327 323 321 325 326 325 325 324 324 323 324 323 323 323 323 323 322 322 321
301 299 300 304 304 306 311 306 307 309 317 322 323 324 321 322 332 333 334 334 331 330 331 331 333 334 333 333 331 329 325 325 322 324 325 325 325 323 325 324 324 324 324 324 323 323 324 323 321
297 300 300 299 303 305 308 312 312 314 321 322 321 323 319 327 326 323 332 334 331 330 330 330 333 334 333 332 331 328 326 327 326 323 325 325 325 324 325 325 324 324 324 324 323 325 324 322 320
298 298 299 299 299 302 306 306 307 310 315 323 323 318 322 323 317 318 320 333 331 331 330 330 332 333 333 333 332 330 330 328 327 325 325 326 325 325 325 324 324 324 324 324 325 325 324 322 321
300 296 296 299 302 302 306 309 311 308 317 321 323 322 324 318 316 314 316 320 323 331 330 329 332 333 332 332 332 331 331 329 329 327 327 326 326 326 326 325 325 325 325 325 326 325 323 322 322
302 301 299 299 304 306 310 312 313 314 318 320 321 321 319 317 314 311 309 309 315 319 324 327 330 331 332 331 331 331 331 330 329 328 328 326 326 327 327 327 327 327 327 326 326 324 323 323 323
304 301 301 301 304 308 309 316 317 318 320 321 319 317 312 311 309 308 307 305 307 310 317 324 327 330 331 331 331 331 331 330 329 329 328 328 327 327 327 327 328 328 328 328 326 325 325 325 324
303 301 302 303 307 310 313 316 319 319 321 318 314 309 307 304 304 303 302 302 305 307 312 322 323 318 330 331 330 330 330 330 330 330 329 329 329 328 328 328 328 329 329 328 328 327 326 326 326
302 305 305 306 307 312 310 316 319 319 320 314 308 306 304 302 301 301 300 300 301 306 310 313 319 314 314 329 328 328 329 329 329 329 330 330 330 330 330 330 329 328 328 328 328 328 328 327 327
307 310 310 311 312 311 315 317 309 309 314 309 306 304 303 301 300 300 300 300 299 301 303 308 314 311 307 314 325 328 328 328 329 328 328 329 329 329 330 329 328 327 327 327 326 327 326 326 325
310 310 313 317 316 315 311 312 308 303 302 300 299 299 299 299 299 298 298 298 298 299 300 300 305 309 306 307 311 322 326 324 325 324 324 323 324 324 324 326 324 323 323 324 325 325 325 324 323
313 312 310 313 308 310 310 308 308 304 302 300 299 298 297 296 296 296 296 296 296 298 299 299 301 301 304 309 305 309 315 317 316 317 318 319 317 317 319 320 320 321 321 322 321 321 320 318 316
310 308 313 314 315 313 314 312 311 308 304 302 300 298 296 296 295 295 294 295 295 296 297 299 299 301 299 302 303 301 304 306 306 309 313 316 313 313 314 318 317 318 319 318 316 317 314 313 311
310 311 310 309 312 314 314 311 307 307 306 304 301 298 297 296 295 294 294 294 294 295 296 295 299 300 302 300 302 303 303 305 306 306 306 309 311 310 312 312 312 311 312 311 310 307 308 309 305
309 309 308 313 311 310 309 308 302 299 302 304 302 300 298 297 295 295 294 294 294 294 295 296 296 298 299 300 301 303 303 307 307 304 302 304 305 309 309 308 308 307 306 306 306 304 302 302 300
Wind_Speed
10 11 6 3 2 3 4 7 3 4 2 5 5 2 6 5 6 5 7 20 27 36 35 32 29 25 22 21 21 20 19 18 17 18 17 19 22 22 20 17 18 17 18 17 17 17 18 17 15
8 7 3 2 3 3 5 5 8 12 7 6 1 2 2 6 1 6 14 17 32 38 35 32 30 26 23 21 21 19 18 18 18 18 18 19 21 21 20 18 18 17 18 17 17 17 17 15 14
7 3 2 3 4 11 5 5 11 14 5 2 4 2 3 4 2 17 5 26 37 37 34 32 30 27 24 22 20 19 20 20 20 19 20 20 21 21 20 18 17 17 17 17 17 17 16 14 13
3 4 3 3 14 7 9 3 4 3 5 4 3 4 3 3 5 15 26 32 37 37 34 31 29 28 25 22 21 21 21 23 20 20 23 23 22 21 18 18 18 17 16 16 15 15 14 14 14
1 1 3 7 20 4 4 8 16 12 4 6 2 3 5 5 5 21 32 34 34 36 34 31 29 28 26 23 23 23 23 21 20 22 25 24 21 18 19 19 18 17 15 14 13 13 15 13 12
2 1 7 20 22 5 6 6 3 4 5 9 3 3 5 4 18 24 30 35 33 37 35 32 29 28 26 25 26 24 23 21 21 22 23 22 20 17 17 19 18 16 13 14 13 13 13 12 10
4 3 17 19 17 12 9 3 4 6 12 9 3 4 2 5 15 26 28 31 34 37 35 32 29 27 25 26 27 24 23 23 22 21 22 21 17 16 15 15 18 16 16 13 13 12 11 10 9
2 3 19 20 17 19 5 5 2 5 6 5 7 5 5 10 22 27 29 31 35 32 35 33 28 26 26 26 26 25 24 24 22 23 22 20 19 18 15 12 14 15 15 13 12 11 10 9 9
0 7 18 27 23 15 3 6 2 2 5 4 3 2 7 21 28 24 25 24 27 26 27 32 32 28 26 27 26 27 25 25 23 21 21 21 21 19 16 12 11 15 14 12 11 10 10 9 9
5 9 19 7 8 4 9 13 4 5 5 4 4 0 7 27 27 25 25 25 30 30 28 28 28 30 29 28 29 29 27 26 24 22 21 20 20 19 16 11 13 14 13 11 10 9 8 6 6
5 19 13 14 12 12 11 13 7 8 12 5 2 7 8 17 20 22 24 31 35 33 29 28 27 29 32 32 32 31 30 27 24 21 21 20 19 18 15 14 15 14 13 11 10 8 6 5 5
9 13 6 6 12 11 10 12 13 11 12 6 6 1 4 15 15 22 24 26 28 32 27 27 26 29 32 33 34 32 30 27 25 23 22 21 19 17 16 16 15 14 12 11 9 7 4 4 3
12 11 7 7 14 13 16 16 12 21 13 8 7 3 6 12 21 26 25 26 29 30 31 28 31 31 31 32 34 34 31 28 26 25 22 19 19 18 16 16 15 14 13 10 8 6 4 4 2
5 8 11 8 11 11 16 19 13 6 7 8 8 5 7 11 11 17 21 24 30 30 32 32 32 31 31 31 36 34 31 28 27 26 23 20 18 16 16 16 16 16 13 10 7 6 4 4 3
7 12 13 13 9 8 7 18 30 10 19 9 7 6 4 11 11 13 26 29 32 34 35 37 32 32 33 33 36 35 31 28 28 27 23 22 20 17 16 16 16 16 12 10 9 7 5 5 2
4 5 14 5 8 7 9 25 20 9 13 15 9 7 3 9 15 20 18 22 27 28 34 39 32 32 34 37 37 34 31 29 28 28 24 22 22 19 18 16 15 14 12 11 9 8 9 6 2
6 9 6 6 10 6 14 13 18 20 16 15 8 8 5 6 10 12 22 26 31 32 30 38 36 33 35 37 35 33 31 30 29 29 24 25 22 21 19 18 17 15 14 14 12 10 10 8 4
8 9 11 11 5 14 16 16 8 15 12 11 8 9 4 8 1 7 6 23 34 34 32 32 34 33 36 35 34 33 32 31 29 30 26 25 24 23 20 18 19 19 19 17 16 13 10 7 8
6 9 9 6 15 9 14 18 21 18 14 12 8 5 1 3 3 7 4 14 27 34 27 35 34 36 36 32 31 30 30 32 30 29 28 26 26 24 23 22 22 22 22 19 16 13 13 10 9
13 7 10 12 11 11 13 14 11 16 15 15 12 7 7 4 2 5 6 13 15 23 31 33 37 38 39 34 31 28 28 33 32 29 29 29 27 26 26 26 23 22 22 20 18 16 14 12 11
21 19 17 12 3 16 4 10 11 13 11 9 11 8 6 6 1 3 9 12 9 9 10 22 35 37 37 39 35 28 29 24 28 31 30 30 29 28 28 28 25 24 24 23 22 20 18 17 11
20 24 18 15 6 10 14 5 9 17 14 13 8 9 9 7 5 3 5 13 9 4 1 8 9 23 32 37 34 33 27 19 23 28 31 31 31 29 28 27 25 25 26 27 24 23 21 16 12
15 15 22 18 16 15 15 4 4 14 16 8 9 9 8 9 3 4 8 8 10 11 5 5 5 12 30 33 29 30 26 20 24 27 29 31 30 30 30 28 25 25 20 22 22 20 20 17 15
13 10 16 11 9 7 13 9 7 13 12 11 8 10 8 12 4 5 8 8 15 13 13 9 6 6 3 29 32 31 30 25 19 23 27 28 24 27 27 23 20 18 19 21 18 18 16 16 16
16 7 6 7 5 5 8 14 3 8 6 14 13 9 8 9 7 6 7 11 13 18 17 12 11 1 13 10 25 32 27 25 26 20 17 17 16 17 19 20 18 17 15 14 13 10 11 15 15
13 9 3 6 6 4 4 4 3 6 14 15 14 11 9 9 10 8 9 8 14 20 18 14 15 14 10 10 12 18 18 20 23 21 18 17 18 18 19 19 14 12 10 7 6 7 8 10 10
6 7 1 2 2 4 3 4 2 7 12 13 11 11 10 9 10 8 10 13 12 22 17 17 19 18 12 12 12 13 12 12 13 17 14 15 14 15 16 15 12 7 6 6 7 9 9 8 6
2 5 3 3 4 4 5 7 3 4 9 9 10 10 8 8 11 8 10 13 15 18 18 17 18 19 20 13 17 13 17 16 14 16 15 13 11 10 10 10 7 8 6 5 8 10 9 9 9
3 2 2 2 3 3 4 4 7 3 8 10 8 9 7 7 10 6 8 11 13 16 19 16 20 18 20 17 17 20 19 19 19 18 12 11 10 9 8 7 6 8 8 8 8 11 13 12 10
3 4 3 1 2 4 3 3 8 8 7 8 9 10 7 6 7 7 9 8 12 12 15 16 19 18 16 16 16 18 20 20 20 15 13 12 13 14 13 11 8 9 11 11 11 10 13 13 13
Wind_Direction
315 329 338 24 60 71 235 242 254 285 238 200 123 177 237 267 164 208 154 158 173 168 168 168 166 165 166 162 157 156 154 150 152 151 148 147 142 136 130 127 118 116 114 115 116 115 113 107 96
316 331 30 79 142 218 240 218 240 234 235 341 351 55 220 235 112 120 139 169 170 165 168 169 167 163 169 166 161 158 158 154 158 158 156 150 148 140 130 123 119 118 116 116 115 119 117 106 94
331 342 81 188 206 227 230 210 234 255 272 265 327 121 242 230 97 155 173 166 168 166 169 171 167 165 170 167 162 157 153 151 153 161 160 156 151 139 129 127 125 119 118 115 115 119 119 110 95
326 16 355 229 233 228 222 251 230 347 319 245 172 245 278 281 193 178 159 163 166 167 170 171 170 168 169 168 161 153 152 148 155 158 159 154 145 137 134 127 127 122 121 119 117 118 122 121 108
330 97 221 235 239 253 225 246 273 283 284 265 42 246 272 323 209 163 158 160 160 167 171 170 174 170 169 169 161 155 154 152 148 144 146 143 139 139 132 133 131 127 127 125 122 121 130 129 120
231 228 218 234 233 220 251 248 282 278 279 288 306 146 222 306 154 161 162 162 164 167 169 171 175 172 169 168 163 158 157 158 154 149 147 145 143 141 140 140 134 134 140 131 126 126 128 132 130
237 205 235 246 237 234 232 211 236 272 269 282 201 200 284 186 168 161 160 160 166 170 169 169 174 174 172 169 165 161 160 161 157 154 151 146 143 140 138 145 148 142 149 143 131 126 124 125 128
253 260 247 238 243 250 231 223 191 238 274 301 143 215 223 192 178 165 162 162 165 168 168 169 170 175 172 171 167 163 161 160 161 157 155 150 144 144 138 139 149 146 148 143 133 128 125 123 128
258 244 237 233 237 239 235 244 252 292 274 306 240 220 286 164 161 149 149 153 154 166 166 171 171 178 174 170 167 165 162 159 160 163 160 158 156 157 157 164 157 153 149 144 138 134 128 125 129
208 241 245 246 236 275 252 251 210 239 247 264 311 291 156 156 161 159 162 165 168 170 170 169 171 178 174 171 167 168 168 168 168 169 168 167 165 167 174 174 171 158 150 145 142 142 139 137 137
271 243 260 277 320 320 322 306 217 223 245 204 252 323 180 169 177 172 177 175 178 171 168 170 170 176 177 172 170 169 170 169 170 173 171 171 170 174 181 174 170 161 157 155 153 149 148 145 146
250 262 283 312 300 306 303 321 305 243 239 192 193 140 243 199 187 185 181 175 177 172 170 168 172 173 178 174 174 172 175 172 171 172 173 174 173 173 174 173 170 166 163 158 151 150 154 146 149
251 265 272 271 283 285 291 281 290 280 273 236 279 341 251 233 206 199 187 181 175 170 167 172 177 174 176 176 177 177 178 176 174 174 176 178 174 168 172 174 174 170 165 164 164 159 153 148 154
279 285 275 269 270 283 269 273 303 275 245 206 212 256 297 234 221 192 179 174 180 172 169 172 181 177 178 177 183 180 181 181 179 178 176 176 176 174 175 176 179 174 175 173 170 165 157 153 137
270 276 281 265 255 253 242 266 244 278 264 265 234 235 352 253 215 213 188 181 178 175 168 173 181 183 182 184 184 183 184 186 184 182 181 185 185 183 174 174 175 176 179 184 181 175 176 153 153
270 268 253 232 210 220 184 252 252 264 228 247 240 250 282 281 226 211 199 179 176 174 175 172 180 182 183 187 186 187 186 187 192 190 190 191 190 189 185 190 188 188 193 189 187 182 173 188 223
210 246 256 283 221 232 192 259 263 262 244 230 222 234 292 344 240 218 199 176 173 178 182 173 185 184 187 189 191 191 188 189 194 194 194 189 191 191 195 200 199 197 193 195 197 200 206 198 218
198 200 231 234 231 211 231 245 251 278 216 213 217 233 340 342 317 23 182 182 175 177 182 182 185 187 191 193 193 194 194 196 196 197 198 195 195 194 195 195 197 198 198 199 202 206 201 198 205
199 226 255 237 232 242 237 238 239 252 261 209 203 210 9 69 350 51 50 162 172 177 184 185 187 189 189 187 185 190 193 198 198 198 200 198 197 198 197 200 202 202 204 203 206 203 208 207 223
219 206 238 264 269 226 249 260 248 237 248 214 204 208 143 120 299 30 61 97 106 177 185 188 192 191 192 188 188 191 195 197 198 201 202 202 200 199 202 205 208 208 207 208 207 205 213 224 232
213 214 222 224 303 226 191 267 240 258 239 209 204 189 115 130 119 16 50 61 89 107 152 190 188 193 190 195 191 190 192 195 197 206 207 208 206 205 208 212 214 216 213 212 210 210 222 219 222
216 211 222 228 237 243 177 255 214 212 188 194 152 143 122 71 59 25 64 59 71 55 85 149 185 201 190 186 181 187 185 184 198 205 211 214 211 212 216 221 222 224 220 220 216 219 228 231 232
236 194 207 210 227 234 191 231 171 174 182 167 129 112 106 90 45 41 40 59 66 60 68 210 210 320 196 192 185 184 184 192 199 205 214 216 214 217 220 223 223 237 231 228 229 225 232 239 246
193 198 196 217 252 226 214 211 165 177 177 144 131 122 112 99 66 48 48 54 61 71 66 81 170 315 297 201 196 200 205 201 205 217 216 215 216 221 226 225 227 231 240 247 235 230 237 243 249
199 173 173 195 173 240 198 195 15 334 196 143 130 103 94 97 76 42 36 46 48 63 67 77 84 156 33 135 188 186 197 195 199 199 202 196 201 208 208 204 216 219 226 231 236 236 237 237 234
191 219 233 194 172 136 339 80 30 36 77 89 98 111 100 96 82 43 41 46 60 58 57 66 82 71 46 75 106 153 164 161 167 169 158 168 170 166 161 165 166 167 186 185 193 199 218 229 227
147 204 187 237 25 101 115 98 125 89 80 89 90 86 78 73 72 57 47 42 51 65 61 59 74 72 66 73 73 87 118 133 134 135 144 149 153 157 153 154 156 164 187 204 218 209 204 198 188
262 131 187 216 131 86 83 65 22 89 106 99 96 90 88 91 72 49 33 39 51 75 76 70 75 75 75 80 81 89 102 102 110 121 119 122 135 135 149 155 178 200 200 199 190 180 165 155 140
339 3 10 121 16 122 122 75 341 66 120 125 120 121 112 82 93 82 51 45 54 72 81 80 80 75 76 74 78 76 82 82 77 79 91 108 118 111 115 121 142 159 150 162 153 147 139 133 123
332 321 260 69 83 41 69 68 10 52 82 112 121 111 110 109 99 83 59 56 55 60 76 77 82 79 76 78 81 74 73 78 78 77 76 94 105 94 93 100 102 110 120 128 128 128 123 121 118